Precipitable_Water
1.46 1.58 1.73 1.51 0.83 0.71 0.55 0.53 0.63 0.61 0.64 0.83 0.83 0.69 0.58 0.60 0.51 0.41 1.04 1.16 1.13 1.02 1.15 1.31 1.17 1.12 1.22 1.16 1.14 1.05 1.01 0.94 0.77 0.70 0.83 0.96 0.98 0.98 1.20 1.16 1.16 1.17 1.24 1.30 1.30 1.24 1.27 1.25 1.24
1.45 1.52 1.61 1.15 0.73 0.58 0.55 0.60 0.55 0.62 0.75 0.85 0.82 0.76 0.64 0.53 0.78 0.83 0.93 1.19 1.06 1.00 1.09 1.17 1.11 1.14 1.22 1.06 1.01 0.97 1.00 1.01 0.91 0.69 0.73 0.78 0.91 0.92 0.89 1.01 1.01 1.05 1.15 1.28 1.30 1.28 1.36 1.38 1.31
1.24 1.48 1.11 0.92 0.78 0.63 0.57 0.58 0.61 0.72 0.77 0.70 0.71 0.85 0.77 0.62 0.79 0.86 1.08 1.18 1.15 1.02 1.10 1.06 1.05 1.19 1.26 1.13 1.03 1.02 1.04 1.03 0.93 0.79 0.76 0.68 0.80 0.85 0.81 0.81 0.85 0.81 0.98 1.12 1.17 1.26 1.31 1.36 1.34
1.04 1.22 0.99 0.76 0.67 0.70 0.65 0.69 0.73 0.62 0.65 0.74 0.78 0.65 0.81 0.92 0.85 0.98 1.19 1.23 1.12 1.10 1.22 1.17 1.21 1.24 1.18 1.14 1.14 1.15 1.12 1.04 0.95 0.87 0.85 0.77 0.72 0.76 0.76 0.71 0.70 0.67 0.73 0.91 1.00 1.11 1.21 1.25 1.25
1.06 0.92 0.65 0.61 0.60 0.60 0.60 0.56 0.47 0.47 0.53 0.53 0.64 0.58 0.62 0.85 1.01 1.12 1.19 1.28 1.21 1.18 1.21 1.24 1.27 1.23 1.21 1.16 1.14 1.11 1.16 1.18 1.15 1.08 0.99 0.91 0.82 0.73 0.70 0.64 0.61 0.58 0.61 0.66 0.77 0.86 1.02 1.12 1.17
0.83 0.79 0.55 0.48 0.50 0.51 0.49 0.45 0.41 0.39 0.35 0.40 0.52 0.54 0.65 0.91 0.94 1.17 1.33 1.36 1.39 1.27 1.27 1.29 1.34 1.39 1.32 1.36 1.32 1.30 1.27 1.19 1.07 1.05 1.06 1.05 1.00 0.96 0.90 0.76 0.67 0.62 0.55 0.52 0.51 0.62 0.79 0.92 1.03
0.77 0.66 0.54 0.52 0.48 0.46 0.42 0.44 0.35 0.33 0.32 0.34 0.58 0.48 0.74 0.84 1.05 1.28 1.29 1.27 1.34 1.34 1.28 1.32 1.41 1.54 1.61 1.67 1.74 1.77 1.68 1.50 1.41 1.37 1.35 1.32 1.14 1.08 1.13 1.11 1.03 1.00 0.94 0.78 0.55 0.55 0.65 0.82 0.90
0.79 0.65 0.50 0.49 0.43 0.40 0.47 0.46 0.45 0.38 0.35 0.47 0.50 0.44 0.65 0.83 1.09 1.15 1.03 1.09 1.24 1.28 1.19 1.33 1.43 1.39 1.44 1.56 1.61 1.72 1.77 1.77 1.74 1.70 1.74 1.71 1.76 1.63 1.52 1.44 1.28 1.17 1.11 1.06 0.93 0.77 0.70 0.74 0.78
0.87 0.58 0.45 0.48 0.44 0.45 0.50 0.48 0.53 0.57 0.47 0.47 0.52 0.52 0.75 0.90 0.97 0.96 0.90 0.91 0.96 1.13 1.17 1.31 1.33 1.38 1.46 1.47 1.48 1.50 1.67 1.68 1.60 1.55 1.55 1.61 1.69 1.75 1.71 1.62 1.56 1.58 1.43 1.28 1.11 1.05 0.91 0.80 0.76
0.72 0.54 0.51 0.56 0.53 0.47 0.50 0.49 0.52 0.52 0.50 0.49 0.49 0.56 0.73 0.82 0.85 0.82 0.81 0.82 0.89 0.97 1.15 1.28 1.30 1.41 1.45 1.43 1.46 1.48 1.47 1.43 1.37 1.36 1.33 1.34 1.34 1.38 1.41 1.38 1.38 1.53 1.55 1.51 1.46 1.43 1.32 1.15 1.01
0.71 0.59 0.59 0.57 0.57 0.57 0.52 0.51 0.55 0.49 0.44 0.44 0.40 0.47 0.57 0.68 0.72 0.71 0.73 0.76 0.78 0.88 1.01 1.13 1.21 1.28 1.31 1.24 1.23 1.23 1.22 1.16 1.07 0.99 0.98 1.03 1.07 1.12 1.16 1.24 1.30 1.36 1.44 1.40 1.33 1.27 1.30 1.26 1.20
0.62 0.65 0.63 0.61 0.61 0.55 0.51 0.52 0.49 0.48 0.43 0.42 0.44 0.44 0.46 0.52 0.59 0.61 0.61 0.64 0.70 0.74 0.77 0.79 0.81 0.79 0.80 0.84 0.85 0.89 0.83 0.72 0.67 0.68 0.73 0.72 0.75 0.80 0.84 0.92 0.98 1.05 1.23 1.28 1.25 1.22 1.20 1.21 1.15
0.64 0.65 0.66 0.64 0.59 0.56 0.53 0.45 0.41 0.39 0.40 0.39 0.39 0.40 0.40 0.43 0.46 0.50 0.53 0.56 0.59 0.60 0.61 0.59 0.49 0.47 0.47 0.46 0.46 0.46 0.45 0.45 0.44 0.44 0.45 0.46 0.45 0.49 0.55 0.62 0.65 0.69 0.81 0.92 0.99 1.05 1.13 1.16 1.17
0.68 0.64 0.60 0.59 0.56 0.53 0.44 0.39 0.34 0.30 0.34 0.32 0.35 0.35 0.37 0.37 0.38 0.38 0.39 0.42 0.44 0.43 0.40 0.41 0.41 0.42 0.41 0.41 0.42 0.42 0.43 0.44 0.42 0.39 0.37 0.38 0.39 0.38 0.39 0.39 0.40 0.40 0.44 0.50 0.63 0.74 0.82 0.84 0.91
0.65 0.54 0.54 0.52 0.52 0.41 0.35 0.24 0.21 0.30 0.34 0.33 0.33 0.35 0.35 0.35 0.36 0.34 0.35 0.37 0.37 0.38 0.39 0.39 0.41 0.42 0.42 0.42 0.43 0.42 0.39 0.35 0.31 0.29 0.27 0.27 0.29 0.30 0.31 0.30 0.30 0.31 0.33 0.34 0.34 0.37 0.43 0.45 0.55
0.53 0.49 0.40 0.45 0.44 0.33 0.30 0.19 0.26 0.35 0.34 0.31 0.33 0.34 0.34 0.35 0.36 0.37 0.36 0.36 0.37 0.38 0.38 0.40 0.41 0.41 0.41 0.39 0.35 0.31 0.29 0.28 0.27 0.27 0.27 0.27 0.29 0.31 0.28 0.29 0.29 0.31 0.32 0.33 0.32 0.31 0.31 0.31 0.34
0.45 0.37 0.38 0.39 0.40 0.32 0.29 0.21 0.28 0.34 0.33 0.31 0.35 0.35 0.34 0.34 0.36 0.38 0.39 0.37 0.38 0.39 0.40 0.39 0.40 0.40 0.38 0.35 0.31 0.29 0.29 0.29 0.29 0.30 0.31 0.31 0.32 0.32 0.31 0.32 0.32 0.34 0.33 0.32 0.32 0.33 0.35 0.33 0.33
0.39 0.39 0.42 0.32 0.28 0.28 0.25 0.20 0.25 0.31 0.31 0.33 0.35 0.36 0.35 0.34 0.36 0.39 0.39 0.38 0.38 0.38 0.39 0.39 0.39 0.39 0.37 0.33 0.30 0.30 0.31 0.31 0.31 0.32 0.34 0.35 0.36 0.35 0.34 0.34 0.33 0.34 0.33 0.33 0.34 0.34 0.36 0.37 0.38
0.40 0.39 0.32 0.26 0.26 0.25 0.22 0.20 0.22 0.29 0.31 0.32 0.34 0.36 0.37 0.37 0.38 0.39 0.37 0.36 0.35 0.37 0.37 0.38 0.37 0.36 0.35 0.33 0.31 0.30 0.30 0.33 0.35 0.38 0.38 0.38 0.37 0.36 0.35 0.35 0.34 0.34 0.33 0.33 0.35 0.35 0.34 0.35 0.39
0.38 0.32 0.25 0.24 0.27 0.25 0.22 0.20 0.24 0.27 0.28 0.31 0.33 0.36 0.37 0.36 0.36 0.36 0.35 0.34 0.34 0.34 0.36 0.37 0.36 0.35 0.36 0.36 0.36 0.36 0.37 0.38 0.39 0.41 0.40 0.40 0.40 0.38 0.36 0.36 0.35 0.35 0.34 0.33 0.33 0.33 0.33 0.35 0.38
0.26 0.22 0.21 0.20 0.24 0.25 0.23 0.18 0.19 0.23 0.27 0.31 0.34 0.35 0.37 0.35 0.35 0.35 0.33 0.33 0.34 0.34 0.34 0.37 0.38 0.38 0.38 0.39 0.39 0.39 0.40 0.40 0.39 0.41 0.41 0.42 0.41 0.39 0.36 0.35 0.34 0.33 0.33 0.31 0.31 0.31 0.31 0.29 0.32
0.19 0.25 0.23 0.22 0.21 0.15 0.25 0.12 0.14 0.19 0.22 0.26 0.31 0.33 0.36 0.37 0.35 0.34 0.33 0.33 0.33 0.34 0.38 0.39 0.41 0.40 0.40 0.41 0.39 0.39 0.38 0.37 0.41 0.42 0.42 0.40 0.37 0.34 0.32 0.32 0.32 0.31 0.31 0.30 0.31 0.32 0.32 0.32 0.28
0.21 0.29 0.26 0.25 0.22 0.20 0.17 0.14 0.13 0.21 0.21 0.27 0.32 0.34 0.37 0.37 0.34 0.33 0.33 0.34 0.36 0.37 0.39 0.41 0.43 0.42 0.42 0.42 0.42 0.40 0.39 0.41 0.41 0.39 0.36 0.34 0.35 0.32 0.31 0.31 0.31 0.30 0.30 0.30 0.31 0.31 0.30 0.31 0.30
0.30 0.26 0.26 0.25 0.21 0.12 0.15 0.15 0.16 0.22 0.27 0.28 0.33 0.35 0.36 0.35 0.34 0.34 0.36 0.36 0.37 0.40 0.41 0.42 0.42 0.41 0.43 0.43 0.42 0.41 0.40 0.39 0.36 0.34 0.33 0.34 0.33 0.30 0.30 0.31 0.31 0.32 0.32 0.31 0.31 0.32 0.32 0.31 0.31
0.28 0.22 0.14 0.12 0.13 0.11 0.22 0.19 0.20 0.26 0.29 0.28 0.29 0.33 0.34 0.36 0.36 0.36 0.35 0.36 0.38 0.39 0.41 0.42 0.42 0.41 0.43 0.43 0.42 0.41 0.39 0.37 0.34 0.34 0.34 0.32 0.29 0.28 0.29 0.31 0.32 0.32 0.33 0.33 0.33 0.33 0.33 0.32 0.31
0.23 0.21 0.14 0.10 0.11 0.15 0.21 0.15 0.18 0.25 0.27 0.29 0.31 0.33 0.35 0.35 0.35 0.36 0.37 0.38 0.38 0.40 0.41 0.43 0.43 0.41 0.42 0.41 0.39 0.38 0.37 0.36 0.36 0.35 0.34 0.31 0.29 0.30 0.33 0.33 0.33 0.33 0.34 0.34 0.35 0.34 0.34 0.34 0.34
0.23 0.20 0.26 0.18 0.18 0.14 0.14 0.16 0.22 0.25 0.24 0.27 0.30 0.31 0.33 0.35 0.35 0.36 0.37 0.39 0.41 0.42 0.43 0.42 0.41 0.41 0.39 0.38 0.37 0.37 0.37 0.37 0.36 0.36 0.34 0.31 0.32 0.32 0.32 0.33 0.33 0.33 0.33 0.33 0.32 0.31 0.31 0.32 0.32
0.25 0.26 0.18 0.18 0.10 0.10 0.13 0.15 0.17 0.22 0.23 0.26 0.27 0.29 0.32 0.34 0.36 0.38 0.40 0.42 0.43 0.42 0.41 0.40 0.38 0.36 0.37 0.38 0.38 0.38 0.38 0.38 0.37 0.36 0.32 0.32 0.33 0.33 0.33 0.32 0.32 0.32 0.32 0.33 0.33 0.33 0.34 0.35 0.36
0.20 0.19 0.20 0.19 0.18 0.13 0.11 0.13 0.22 0.23 0.26 0.26 0.27 0.29 0.30 0.33 0.37 0.40 0.41 0.40 0.38 0.38 0.38 0.36 0.36 0.37 0.37 0.38 0.38 0.37 0.37 0.38 0.37 0.33 0.33 0.33 0.33 0.32 0.31 0.31 0.32 0.33 0.34 0.35 0.36 0.37 0.38 0.38 0.39
0.23 0.20 0.20 0.16 0.14 0.17 0.17 0.17 0.27 0.26 0.27 0.28 0.29 0.32 0.35 0.37 0.38 0.37 0.34 0.34 0.35 0.35 0.35 0.35 0.34 0.35 0.36 0.37 0.37 0.37 0.37 0.35 0.33 0.32 0.32 0.32 0.31 0.31 0.32 0.33 0.34 0.35 0.37 0.38 0.38 0.39 0.40 0.39 0.38
Wind_Speed
3 4 3 4 2 2 1 0 1 0 1 1 1 2 2 3 4 2 4 2 3 1 2 3 3 3 3 4 5 5 5 5 6 6 6 6 6 6 6 6 6 6 6 6 5 5 5 5 4
4 4 4 4 3 2 2 2 2 1 4 2 2 2 4 3 3 2 3 3 3 2 3 3 4 4 4 5 5 5 5 6 6 6 6 6 6 6 6 6 6 6 5 5 5 5 5 4 4
6 5 4 4 5 4 4 3 2 2 1 3 1 3 3 3 3 2 2 2 3 3 3 3 4 5 5 6 6 6 6 7 7 7 7 6 6 6 6 6 6 6 6 6 5 5 4 4 4
6 6 4 4 5 3 4 4 4 2 3 3 3 4 4 4 5 4 1 2 4 4 4 5 5 5 5 6 6 6 7 7 7 7 7 7 7 7 7 7 7 7 7 7 7 6 6 6 6
6 7 5 5 5 4 4 4 5 3 3 5 6 5 4 4 5 3 3 4 5 5 5 5 5 5 6 6 6 6 7 8 8 8 8 8 8 8 8 9 8 8 8 8 8 8 8 8 7
7 7 6 7 7 6 5 5 4 4 5 5 4 4 5 5 6 4 5 5 5 6 7 6 6 6 6 6 6 6 7 7 8 8 9 9 9 10 10 10 9 9 9 9 9 9 9 9 9
8 7 9 8 8 7 7 6 5 5 6 6 6 6 7 7 7 4 5 6 7 7 8 7 7 7 7 7 8 8 8 7 7 8 8 9 9 9 9 9 10 10 10 10 10 10 10 10 10
8 7 8 9 9 8 7 6 6 6 7 7 7 8 8 8 5 4 4 5 6 7 9 8 8 8 9 9 9 9 9 9 9 10 11 11 11 10 9 9 9 10 10 11 11 11 12 12 12
9 7 9 10 10 10 9 8 8 8 7 8 9 8 9 7 5 5 6 7 7 8 8 8 9 9 10 10 10 10 10 10 11 12 12 10 10 11 11 11 12 12 12 12 12 12 13 14 15
9 8 12 10 10 10 9 9 9 9 9 9 8 8 7 7 7 7 8 8 8 8 8 8 9 9 10 11 11 11 12 13 13 13 13 13 13 13 13 13 14 15 15 15 15 15 16 16 16
11 10 10 10 10 9 9 10 11 10 13 12 11 10 9 8 8 8 9 10 10 9 8 9 9 10 11 12 12 12 12 13 13 13 13 13 14 15 16 16 16 16 16 17 18 19 19 19 20
10 10 11 10 10 10 11 11 11 13 13 12 11 10 10 10 10 10 10 11 10 10 10 11 11 11 11 11 12 12 12 12 13 13 14 15 16 16 16 17 18 19 19 20 21 22 23 23 23
12 12 11 11 11 11 12 13 13 13 12 10 10 11 11 11 11 11 11 11 11 11 11 12 12 12 11 11 11 11 11 12 13 13 14 15 16 16 17 18 19 20 22 23 24 25 25 26 27
13 12 12 13 13 13 13 14 13 14 12 11 11 12 12 12 12 12 12 12 12 12 12 13 12 12 11 11 11 12 12 13 14 15 16 17 18 19 20 21 22 23 24 25 26 27 28 29 29
13 13 14 14 15 14 13 14 16 13 12 12 13 13 13 13 13 14 14 13 13 14 13 13 13 12 12 12 13 13 14 15 16 18 19 20 20 21 22 23 25 26 28 29 30 31 31 32 32
13 13 13 15 14 14 12 15 14 14 14 15 15 15 15 15 15 15 14 14 14 14 13 13 13 13 13 13 13 14 15 17 18 20 21 22 23 24 26 27 28 30 31 32 33 34 35 35 36
13 15 16 16 15 13 13 15 14 14 16 17 17 17 16 16 16 16 15 15 14 14 14 14 13 13 13 14 15 16 17 19 21 22 23 25 26 28 29 30 32 33 34 36 37 37 38 39 39
16 16 16 16 14 14 15 20 17 17 18 19 18 19 18 18 18 17 17 16 15 15 14 14 14 14 15 16 17 18 20 21 23 25 26 28 30 31 32 34 35 37 38 39 40 41 41 42 43
13 15 15 15 15 15 19 20 21 20 20 21 21 20 20 19 18 18 17 16 15 15 15 15 15 16 17 19 20 21 23 24 26 28 30 32 33 35 36 37 38 40 41 41 42 43 44 44 45
15 15 16 16 15 16 17 20 20 20 21 23 22 21 20 18 18 18 17 16 15 15 16 16 17 18 20 21 23 24 26 28 30 32 34 35 36 38 39 40 41 42 43 44 45 46 46 46 46
14 15 15 16 16 17 18 20 17 15 17 18 20 22 20 19 18 17 17 17 16 16 17 18 19 21 23 24 26 28 30 31 33 35 37 38 40 41 42 44 45 45 46 47 47 47 48 48 47
14 14 14 14 14 16 14 18 17 16 18 17 16 16 17 17 18 17 17 17 18 18 19 21 22 24 25 27 29 31 33 35 37 39 40 41 43 44 45 46 47 47 48 48 48 48 48 49 49
13 12 13 14 14 16 16 15 16 14 13 13 13 15 16 17 18 18 18 19 20 20 22 24 25 27 28 30 32 34 36 38 40 42 43 44 45 46 47 48 49 50 49 50 50 50 50 50 51
12 13 13 14 14 15 15 12 14 11 12 14 13 14 14 15 17 18 19 20 21 23 25 26 27 29 31 33 35 37 39 41 42 44 46 47 48 49 50 51 51 51 51 52 52 53 53 53 53
12 11 14 13 12 14 12 11 15 14 13 14 15 15 14 15 17 19 20 22 24 26 27 28 30 32 33 35 37 38 40 42 45 47 49 51 51 52 52 53 53 54 54 55 55 55 55 54 54
12 11 11 13 12 13 11 13 12 13 14 14 14 13 13 16 17 19 22 24 26 27 28 30 32 33 35 37 38 40 42 44 46 49 51 53 53 54 55 56 56 57 57 56 56 57 57 56 56
11 11 12 11 13 13 14 15 13 13 13 12 12 13 15 17 19 22 24 26 27 28 30 32 33 34 36 38 39 41 44 47 50 52 53 54 55 57 58 59 59 59 60 60 59 58 57 56 55
12 11 10 11 12 13 13 14 13 14 14 14 14 16 18 21 23 25 26 27 28 29 30 32 33 35 37 39 41 44 47 50 53 54 55 57 59 59 60 61 61 60 59 58 56 55 54 53 51
10 12 10 11 11 12 14 15 14 14 14 16 19 20 22 24 24 25 26 27 28 29 30 32 34 37 39 41 44 47 50 52 54 56 58 59 60 61 61 61 60 58 57 55 53 52 51 51 49
12 12 11 11 13 13 13 18 16 15 17 20 21 22 23 23 23 24 25 26 28 30 32 34 37 39 41 44 47 50 53 55 57 58 59 60 61 60 60 58 57 54 52 51 50 48 47 46 45
Wind_Direction
238 233 208 189 188 141 218 252 271 146 39 7 35 46 30 346 327 299 338 346 358 350 313 312 320 321 317 311 320 326 334 341 346 345 347 352 355 356 4 2 3 4 10 12 17 20 23 22 26
234 214 200 203 180 178 247 253 152 167 147 137 37 10 10 359 8 16 4 9 23 16 344 325 317 312 315 318 315 315 319 323 329 333 334 335 339 342 342 344 346 346 348 353 353 356 360 4 6
228 212 206 196 199 208 200 223 178 150 211 289 314 344 329 333 329 300 333 9 6 355 351 343 332 317 309 313 313 312 309 311 315 319 321 323 323 326 328 329 329 331 328 327 329 331 331 334 334
220 217 215 200 190 229 223 204 178 197 295 313 291 327 325 320 301 301 282 335 343 339 339 338 337 332 320 315 310 308 307 307 308 309 310 312 312 312 315 317 317 317 314 311 310 312 309 309 310
219 216 216 198 215 222 242 225 234 241 264 293 285 283 305 321 313 279 280 296 316 328 325 323 325 323 325 326 324 316 310 308 306 305 304 304 305 304 305 306 306 307 307 305 302 301 300 296 298
226 216 206 212 219 220 243 240 254 270 276 286 289 285 289 308 315 276 281 290 306 312 316 308 308 312 314 320 322 323 321 320 319 310 306 302 299 300 301 300 299 300 302 301 300 298 295 295 292
221 222 215 214 224 236 234 250 260 264 275 290 273 286 280 307 305 264 279 289 295 304 307 302 303 304 300 303 308 312 312 314 317 317 314 314 307 301 301 299 296 296 299 299 298 297 295 292 292
224 221 215 225 227 241 242 253 263 273 273 279 280 279 278 293 297 263 287 303 303 301 305 295 293 298 298 297 298 301 303 304 307 308 306 302 302 300 299 300 301 300 298 298 296 295 293 291 290
225 231 224 228 227 246 243 252 268 275 276 283 283 281 280 273 276 278 288 298 309 313 307 300 295 295 297 296 295 294 297 300 302 304 306 305 302 302 291 294 294 297 297 297 297 297 294 293 289
228 230 228 230 236 243 247 258 256 272 277 285 282 284 279 270 275 277 283 290 298 308 305 300 299 297 296 296 294 293 292 295 297 300 299 295 295 295 295 295 293 292 291 290 292 295 295 293 291
229 232 232 235 240 247 252 264 270 264 273 271 263 268 273 269 275 278 282 285 290 295 298 299 298 297 294 293 295 294 293 294 296 298 298 297 295 294 294 292 293 291 293 290 288 291 291 291 289
233 239 237 241 250 257 259 266 273 270 276 271 261 264 269 268 270 273 278 281 285 290 293 295 298 297 296 293 294 295 295 297 298 299 299 298 296 294 294 293 293 293 292 290 289 289 288 288 288
236 241 248 253 258 264 266 274 269 268 268 268 264 268 267 268 268 271 272 278 282 287 289 291 294 295 295 295 295 296 297 299 300 302 302 301 300 298 297 295 295 294 292 291 290 289 288 287 286
239 245 251 257 262 266 270 271 273 266 260 265 265 265 266 264 264 268 271 273 277 282 285 288 291 292 294 294 295 296 297 299 301 303 302 301 299 297 297 295 295 295 294 293 291 290 289 287 286
239 249 260 259 263 269 268 271 265 260 255 262 267 265 265 265 264 266 269 271 273 277 280 283 285 288 290 292 294 296 298 299 301 303 303 301 299 297 297 296 295 295 294 293 293 291 289 288 287
247 255 261 265 263 268 266 270 270 257 256 263 266 266 265 266 264 266 267 270 272 273 275 278 280 283 287 291 294 297 299 301 303 304 303 302 300 298 297 296 295 295 294 293 292 291 290 288 287
256 254 257 273 258 264 262 273 274 262 261 265 266 265 265 265 266 266 266 267 268 269 270 272 276 281 285 290 293 297 299 301 303 304 303 302 300 299 298 296 296 295 294 293 292 291 290 289 287
246 253 260 262 264 264 265 270 273 269 265 265 264 265 265 263 264 266 266 265 266 265 267 270 274 279 285 290 292 295 297 300 303 303 303 302 301 299 298 297 296 295 294 293 292 291 290 289 287
248 254 261 266 268 264 268 273 275 269 267 265 265 264 264 262 263 265 266 264 263 263 265 269 274 280 285 290 292 294 296 299 302 303 303 303 302 300 299 298 297 296 295 294 293 291 290 289 288
250 257 265 270 271 267 276 275 277 274 270 263 261 259 258 260 258 260 262 262 261 265 266 270 275 281 286 291 292 294 296 298 300 302 303 303 303 301 300 299 297 296 295 294 293 292 290 288 288
253 255 262 266 279 279 286 283 284 281 277 272 264 261 257 251 253 258 257 260 262 267 269 272 277 283 288 291 293 295 296 298 300 302 302 302 302 301 300 299 298 296 295 294 292 291 289 287 286
259 260 266 273 281 277 288 283 288 288 285 279 268 256 249 251 255 255 257 261 264 271 275 277 281 284 288 292 294 296 297 298 300 301 301 302 302 301 300 299 298 297 295 293 292 291 289 287 286
258 267 272 275 279 286 285 281 286 296 290 289 272 262 257 254 252 254 258 263 268 273 277 281 283 285 290 293 295 296 298 299 301 302 302 302 302 301 300 299 298 297 295 294 292 290 289 287 285
262 272 282 280 279 282 280 271 288 288 286 290 284 267 262 259 257 261 265 268 274 278 281 283 285 287 291 294 296 298 299 301 302 302 302 303 302 302 301 300 299 297 295 294 292 290 288 286 284
269 277 280 283 283 270 283 279 275 285 287 288 289 270 266 267 267 267 268 273 277 280 282 285 287 289 292 296 298 299 301 302 303 304 304 304 303 302 301 300 299 297 295 294 292 290 288 286 284
263 258 259 273 274 281 280 273 279 284 290 292 291 277 272 274 274 274 277 279 280 282 285 287 290 292 295 297 299 300 302 303 304 305 304 304 303 303 302 300 299 297 296 294 292 290 288 286 284
261 262 265 271 281 280 276 282 286 290 294 301 299 292 282 282 283 284 284 284 285 287 289 291 293 294 296 298 300 302 303 304 305 305 305 304 304 303 302 301 299 298 296 294 292 289 288 285 284
264 260 274 279 275 279 284 283 276 292 292 296 299 298 294 293 293 292 291 289 288 290 292 294 295 296 298 300 301 302 304 305 305 305 305 305 304 304 303 301 300 298 297 295 292 289 288 286 285
269 269 275 269 270 272 284 282 280 285 281 288 294 299 299 296 294 294 291 291 292 293 294 296 297 298 299 301 302 303 305 306 306 306 305 305 305 304 303 301 300 298 297 295 292 290 288 286 285
265 263 263 268 273 277 277 282 284 290 293 297 299 300 300 301 300 299 298 296 297 297 298 298 299 300 301 302 303 304 305 306 306 306 306 306 305 304 303 302 300 299 298 296 293 291 289 286 284